Mason, MI

10:49 PM EDT on October 19, 2017 (GMT -0400)
Mason Jewett

Weather History for KTEW - October, 2012

Change the Weather History Date:

Thursday, October 25, 2012

  Actual Average (KLAN) Record (KLAN)
Temperature  
Mean Temperature 68 °F -  
Max Temperature 77 °F 56 °F 81 °F (1963)
Min Temperature 58 °F 37 °F 12 °F (1887)
Cooling Degree Days 2    
Growing Degree Days 18 (Base 50)    
Moisture  
Dew Point 55 °F    
Average Humidity 62    
Maximum Humidity 81    
Minimum Humidity 46    
Precipitation  
Precipitation 0.00 in - - ()
Sea Level Pressure  
Sea Level Pressure 29.89 in    
Wind  
Wind Speed 5 mph (South)    
Max Wind Speed 18 mph    
Max Gust Speed 31 mph    
Visibility 10 miles    
Events      
Averages and records for this station are not official NWS values.
T = Trace of Precipitation, MM = Missing Value Source: NWS Daily Summary

Daily Weather History Graph

Daily Weather History Graph

Search for Another Location

Airport or City:

Trip Planner

Search our weather history database for the weather conditions in past years. The results will help you decide how hot, cold, wet, or windy it might be!

Date:

Astronomy

Oct. 25, 2012 Rise Set
Actual Time 8:03 AM EDT 6:39 PM EDT
Civil Twilight 7:34 AM EDT 7:08 PM EDT
Nautical Twilight 7:01 AM EDT 7:41 PM EDT
Astronomical Twilight 6:28 AM EDT 8:13 PM EDT
Moon 4:29 PM EDT (10/25) 3:54 AM EDT (10/25)
Length of Visible Light 11h 33m
Length of Day
10h 36m
Waxing Gibbous, 84% of the Moon is Illuminated
Oct 25
Waxing Gibbous
Oct 29
Full
Nov 6
Last Quarter
Nov 13
New
Nov 20
First Quarter

Hourly Weather History & Observations

Time (EDT) Temp. Dew Point Humidity Pressure Visibility Wind Dir Wind Speed Gust Speed Precip Events Conditions
12:13 AM 64.6 °F 57.2 °F 77% 29.96 in 10.0 mi Calm Calm - N/A   Clear
12:33 AM 64.6 °F 57.0 °F 76% 29.96 in 10.0 mi Calm Calm - N/A   Clear
12:52 AM 65.7 °F 55.9 °F 71% 29.96 in 10.0 mi Calm Calm - N/A   Clear
1:12 AM 64.0 °F 55.4 °F 73% 29.96 in 10.0 mi Calm Calm - N/A   Clear
1:32 AM 63.5 °F 54.9 °F 73% 29.96 in 10.0 mi Calm Calm - N/A   Clear
1:52 AM 62.6 °F 54.5 °F 75% 29.96 in 10.0 mi Calm Calm - N/A   Clear
2:12 AM 64.4 °F 54.0 °F 69% 29.96 in 10.0 mi Calm Calm - N/A   Clear
2:32 AM 64.2 °F 53.8 °F 69% 29.96 in 10.0 mi Calm Calm - N/A   Clear
2:52 AM 63.7 °F 53.6 °F 70% 29.95 in 10.0 mi Calm Calm - N/A   Clear
3:32 AM 64.6 °F 53.2 °F 67% 29.95 in 10.0 mi Calm Calm - N/A   Clear
3:52 AM 62.1 °F 53.2 °F 73% 29.95 in 10.0 mi Calm Calm - N/A   Clear
4:12 AM 62.2 °F 53.1 °F 72% 29.95 in 10.0 mi SSE 5.8 mph - N/A   Clear
4:32 AM 60.8 °F 52.7 °F 75% 29.94 in 10.0 mi SSE 5.8 mph - N/A   Clear
4:52 AM 59.7 °F 52.7 °F 78% 29.94 in 10.0 mi SSE 4.6 mph - N/A   Clear
5:12 AM 59.9 °F 53.1 °F 78% 29.95 in 10.0 mi South 6.9 mph - N/A   Clear
5:32 AM 59.2 °F 52.7 °F 79% 29.95 in 10.0 mi South 3.5 mph - N/A   Clear
5:52 AM 59.2 °F 52.9 °F 80% 29.94 in 10.0 mi South 6.9 mph - N/A   Clear
6:12 AM 59.7 °F 52.9 °F 78% 29.94 in 10.0 mi South 9.2 mph - N/A   Clear
6:32 AM 59.4 °F 53.1 °F 80% 29.94 in 10.0 mi South 8.1 mph - N/A   Clear
6:52 AM 59.2 °F 53.1 °F 80% 29.94 in 10.0 mi South 5.8 mph - N/A   Clear
7:32 AM 59.0 °F 52.9 °F 80% 29.94 in 10.0 mi South 4.6 mph - N/A   Clear
7:52 AM 58.6 °F 52.9 °F 81% 29.95 in 10.0 mi South 6.9 mph - N/A   Clear
8:13 AM 58.6 °F 52.9 °F 81% 29.95 in 10.0 mi South 6.9 mph - N/A   Clear
8:32 AM 58.8 °F 53.1 °F 81% 29.96 in 10.0 mi South 9.2 mph - N/A   Scattered Clouds
8:52 AM 59.4 °F 53.2 °F 80% 29.96 in 10.0 mi South 6.9 mph - N/A   Clear
9:52 AM 63.5 °F 54.7 °F 73% 29.94 in 10.0 mi South 9.2 mph - N/A   Clear
10:13 AM 65.5 °F 55.4 °F 70% 29.94 in 10.0 mi South 6.9 mph - N/A   Clear
10:32 AM 67.6 °F 55.9 °F 66% 29.94 in 10.0 mi South 8.1 mph - N/A   Clear
10:52 AM 70.2 °F 56.8 °F 63% 29.94 in 10.0 mi South 5.8 mph - N/A   Clear
11:12 AM 71.8 °F 57.4 °F 60% 29.93 in 10.0 mi South 5.8 mph 17.3 mph N/A   Clear
11:32 AM 73.8 °F 58.5 °F 59% 29.93 in 10.0 mi SSW 5.8 mph - N/A   Clear
11:52 AM 74.1 °F 58.3 °F 58% 29.93 in 10.0 mi SSW 10.4 mph 18.4 mph N/A   Scattered Clouds
12:12 PM 74.3 °F 58.3 °F 57% 29.92 in 10.0 mi South 11.5 mph 19.6 mph N/A   Scattered Clouds
12:32 PM 74.5 °F 57.9 °F 56% 29.91 in 10.0 mi SSW 10.4 mph 23.0 mph N/A   Scattered Clouds
1:12 PM 75.4 °F 57.4 °F 53% 29.89 in 10.0 mi SSW 11.5 mph 21.9 mph N/A   Scattered Clouds
1:32 PM 76.1 °F 57.6 °F 53% 29.88 in 10.0 mi South 6.9 mph - N/A   Scattered Clouds
1:52 PM 76.1 °F 56.7 °F 51% 29.87 in 10.0 mi SSW 13.8 mph 23.0 mph N/A   Scattered Clouds
2:12 PM 76.3 °F 56.5 °F 50% 29.86 in 10.0 mi South 11.5 mph 19.6 mph N/A   Clear
2:53 PM 77.0 °F 56.1 °F 48% 29.84 in 10.0 mi South 12.7 mph 23.0 mph N/A   Clear
3:12 PM 76.5 °F 56.1 °F 49% 29.83 in 10.0 mi South 17.3 mph 28.8 mph N/A   Clear
3:32 PM 77.0 °F 56.1 °F 48% 29.83 in 10.0 mi South 12.7 mph 26.5 mph N/A   Clear
3:53 PM 77.2 °F 54.9 °F 46% 29.82 in 10.0 mi South 12.7 mph 27.6 mph N/A   Clear
4:12 PM 77.0 °F 55.4 °F 47% 29.82 in 10.0 mi South 11.5 mph 29.9 mph N/A   Clear
4:32 PM 76.6 °F 54.9 °F 47% 29.81 in 10.0 mi South 18.4 mph 29.9 mph N/A   Clear
4:53 PM 76.1 °F 54.1 °F 46% 29.81 in 10.0 mi South 13.8 mph 28.8 mph N/A   Clear
5:12 PM 76.1 °F 54.0 °F 46% 29.81 in 10.0 mi South 12.7 mph 24.2 mph N/A   Clear
5:32 PM 74.7 °F 54.0 °F 48% 29.81 in 10.0 mi South 12.7 mph 31.1 mph N/A   Clear
5:53 PM 74.5 °F 54.1 °F 49% 29.81 in 10.0 mi South 15.0 mph 23.0 mph N/A   Clear
6:12 PM 73.9 °F 54.1 °F 50% 29.82 in 10.0 mi South 6.9 mph 18.4 mph N/A   Clear
6:32 PM 73.2 °F 53.8 °F 50% 29.82 in 10.0 mi South 9.2 mph 24.2 mph N/A   Clear
6:53 PM 72.3 °F 53.2 °F 51% 29.81 in 10.0 mi South 12.7 mph 23.0 mph N/A   Clear
7:12 PM 71.6 °F 53.6 °F 53% 29.82 in 10.0 mi South 8.1 mph - N/A   Clear
7:32 PM 70.9 °F 53.4 °F 54% 29.83 in 10.0 mi South 8.1 mph 16.1 mph N/A   Clear
7:53 PM 71.2 °F 53.2 °F 53% 29.84 in 10.0 mi South 6.9 mph 16.1 mph N/A   Clear
8:12 PM 70.9 °F 53.6 °F 54% 29.84 in 10.0 mi South 5.8 mph 16.1 mph N/A   Clear
8:32 PM 71.2 °F 53.6 °F 54% 29.85 in 10.0 mi South 8.1 mph 18.4 mph N/A   Mostly Cloudy
8:53 PM 71.6 °F 53.8 °F 53% 29.85 in 10.0 mi South 5.8 mph 18.4 mph N/A   Overcast
9:12 PM 70.9 °F 54.0 °F 55% 29.83 in 10.0 mi South 10.4 mph 20.7 mph N/A   Mostly Cloudy
9:33 PM 70.7 °F 54.0 °F 55% 29.82 in 10.0 mi South 9.2 mph 18.4 mph N/A   Clear
9:53 PM 70.3 °F 53.8 °F 56% 29.82 in 10.0 mi South 6.9 mph 19.6 mph N/A   Clear
10:12 PM 70.7 °F 53.6 °F 55% 29.82 in 10.0 mi South 6.9 mph 17.3 mph N/A   Clear
10:33 PM 70.7 °F 53.6 °F 55% 29.83 in 10.0 mi South 8.1 mph 17.3 mph N/A   Clear
10:53 PM 70.0 °F 53.8 °F 56% 29.82 in 10.0 mi South 8.1 mph 18.4 mph N/A   Clear
11:12 PM 69.8 °F 54.0 °F 57% 29.81 in 10.0 mi South 9.2 mph 17.3 mph N/A   Scattered Clouds
11:33 PM 70.0 °F 54.0 °F 57% 29.81 in 10.0 mi South 8.1 mph - N/A   Scattered Clouds
11:52 PM 70.7 °F 54.0 °F 55% 29.81 in 10.0 mi South 8.1 mph 20.7 mph N/A   Mostly Cloudy